Wind_Speed
1 2 2 2 2 3 4 4 3 3 3 3 3 4 5 6 6 6 6 6 6 6 5 5 5 7 7 7 6 7 7 7 6 6 6 5 5 6 6 6 6 7 8 8 9 9 9 9 8 8 8 9 9 10 11 11 11 11 11 11 10 9 8 8 8 8 9 10 11 11 11 12 12 13
1 2 1 2 2 2 3 4 4 3 3 4 4 4 5 6 6 7 7 6 7 7 6 5 4 4 5 7 6 6 6 6 5 6 6 5 4 5 5 5 6 7 8 9 10 10 10 9 8 7 7 7 8 8 9 10 10 10 10 10 9 9 8 7 7 7 7 8 9 9 10 10 10 11
2 2 2 2 2 3 4 4 5 5 5 6 6 6 6 7 7 8 9 8 7 8 9 8 7 6 6 7 7 7 6 6 5 6 6 6 5 5 5 5 6 7 8 10 11 11 10 8 7 7 7 7 7 7 7 8 9 9 9 9 9 9 8 7 6 6 5 6 6 7 8 8 9 9
3 3 3 3 3 4 4 5 5 5 6 7 7 7 7 7 8 8 9 9 8 8 9 9 9 8 7 7 7 7 6 6 7 7 7 6 6 7 7 6 6 8 10 11 12 11 9 8 7 6 7 7 7 7 7 8 8 9 9 9 9 9 8 8 7 6 5 5 5 5 5 6 7 7
4 4 4 4 4 5 5 5 5 5 6 6 6 7 6 7 8 7 7 8 7 7 8 8 8 7 7 6 6 6 6 7 7 7 7 7 6 7 8 8 8 9 10 11 12 10 9 9 7 5 5 6 6 6 6 7 8 8 9 8 9 9 8 8 7 6 6 5 4 4 4 4 4 5
5 5 5 5 5 6 6 6 6 5 5 5 5 6 6 6 7 7 6 6 5 5 6 7 7 7 6 6 5 5 5 5 6 6 7 7 7 6 7 8 9 9 9 10 10 9 9 9 8 6 4 5 6 6 6 6 7 8 8 8 8 8 8 8 8 7 6 6 5 4 4 3 3 2
6 6 6 6 6 6 7 7 6 6 6 6 5 6 6 5 6 7 6 6 5 5 5 6 7 7 7 7 6 6 6 6 6 7 7 7 7 7 7 8 8 8 8 9 9 8 8 9 9 8 5 4 5 5 5 5 6 6 7 7 7 8 8 8 8 8 7 6 6 5 5 5 4 3
7 7 7 7 7 7 8 8 7 6 6 6 6 6 6 6 5 6 6 6 6 6 6 6 7 8 8 8 8 8 7 7 8 8 8 8 8 8 8 8 8 8 8 8 7 7 8 8 9 9 7 5 4 5 5 5 5 5 6 6 6 7 8 9 9 9 8 8 7 6 6 6 6 6
8 8 8 8 8 8 8 8 7 6 6 6 6 6 6 6 5 4 5 5 5 6 6 6 7 8 8 8 9 9 9 9 9 9 10 10 10 9 9 8 8 8 8 8 7 8 8 8 8 8 7 6 5 5 5 4 4 4 4 5 5 6 7 8 9 9 9 9 9 8 7 7 6 7
9 9 9 10 10 10 9 9 8 7 7 6 7 7 6 6 5 4 4 5 5 6 6 7 7 8 9 9 9 10 10 10 11 11 11 11 11 12 11 10 9 9 9 9 9 9 9 9 9 9 9 8 7 6 6 6 5 4 4 5 5 6 7 7 8 9 9 10 10 10 10 9 8 8
11 10 11 11 11 11 11 10 10 9 8 8 8 8 7 7 6 6 6 7 7 8 8 8 9 9 10 10 10 11 11 11 12 12 12 12 13 14 14 13 12 11 11 10 10 9 8 8 9 10 10 10 9 9 9 8 7 7 7 7 7 7 7 8 8 9 9 9 10 10 11 11 11 10
12 12 13 12 12 12 12 12 12 11 11 11 10 9 9 9 9 9 9 10 10 10 10 11 11 11 11 11 12 12 12 12 13 13 13 14 14 15 16 15 12 11 12 11 11 9 7 7 9 9 10 10 10 11 12 11 11 10 10 10 10 10 10 10 10 10 10 10 10 11 11 11 12 12
14 14 15 14 14 13 13 13 14 14 13 13 13 12 12 13 13 12 12 13 13 13 13 13 13 13 13 12 13 12 12 13 14 13 14 14 15 15 16 16 12 10 11 12 13 11 8 7 9 9 9 10 11 13 14 14 14 14 13 13 13 13 13 12 12 12 12 12 12 12 12 13 13 13
16 16 16 15 15 15 15 15 15 15 14 15 15 15 16 16 16 15 15 15 15 15 15 14 14 14 14 14 13 13 13 14 14 14 14 14 15 15 16 17 16 13 10 11 14 15 12 10 10 10 9 9 11 13 15 17 17 16 16 16 16 17 16 16 15 15 15 14 14 14 14 14 15 15
19 19 18 17 16 17 17 18 17 16 16 16 16 17 17 17 17 17 17 17 16 16 16 16 16 15 15 15 15 14 14 14 14 15 15 15 15 15 16 17 19 18 13 10 13 17 17 14 13 13 11 10 11 13 15 17 19 19 19 19 19 19 19 18 17 17 17 17 17 17 17 17 17 17
20 20 19 18 17 18 19 19 18 17 16 17 17 17 17 18 18 18 17 17 17 16 16 17 17 17 16 16 16 15 14 14 15 15 15 15 15 16 16 17 20 21 19 15 14 17 19 18 17 16 14 13 13 13 14 16 18 20 21 21 21 21 21 21 21 20 19 19 19 19 19 19 19 19
22 21 21 20 18 19 20 19 18 18 17 17 18 17 17 18 17 17 16 16 17 16 16 17 17 17 17 17 18 17 16 16 15 15 16 17 16 16 16 17 19 22 21 18 16 17 19 19 18 18 17 16 16 16 15 15 16 18 20 21 21 21 21 22 23 24 23 22 21 21 21 21 21 21
22 21 21 20 20 21 21 20 20 20 19 19 18 18 18 18 17 17 16 16 17 16 16 17 18 18 18 18 19 19 18 18 17 17 17 18 18 18 18 18 19 21 21 19 16 17 19 20 18 18 19 18 18 18 17 17 17 17 19 20 20 21 22 22 24 25 25 25 24 24 23 23 22 23
24 22 22 22 22 23 22 21 21 21 21 21 20 19 19 19 19 18 18 18 18 18 18 19 20 20 20 20 20 21 21 21 20 20 19 19 19 18 19 20 20 21 21 19 17 17 19 20 18 18 19 19 20 20 19 19 19 19 19 20 20 20 21 22 23 24 26 26 26 26 26 25 25 25
27 26 24 24 24 25 24 23 22 23 23 23 22 21 21 21 22 20 19 20 21 20 20 21 22 22 22 22 22 22 22 22 22 22 22 22 21 20 20 21 21 22 23 21 19 18 20 20 19 19 20 20 21 22 21 20 20 20 21 21 20 20 20 21 22 24 25 27 27 28 28 28 27 27
30 28 27 27 27 27 26 26 25 26 27 26 24 23 23 23 24 23 22 23 23 22 23 24 24 24 24 24 24 24 24 24 23 22 23 24 24 23 22 22 23 24 24 23 21 21 21 22 21 20 21 22 23 23 23 23 22 21 21 21 21 21 21 22 23 23 25 26 27 27 28 28 28 28
31 31 30 31 31 29 28 28 28 28 30 29 26 25 25 25 25 25 25 26 26 25 25 26 26 26 26 27 27 27 27 25 24 23 23 24 24 24 24 24 24 26 26 25 24 24 24 24 23 22 22 24 25 26 25 25 24 23 22 22 23 23 23 23 23 24 24 25 25 26 27 27 28 29
33 33 33 33 33 32 30 30 30 31 31 30 29 28 27 27 27 27 28 28 28 27 28 28 28 28 28 29 30 30 29 28 26 25 25 25 25 25 25 26 25 26 28 28 27 26 26 26 26 25 24 24 27 29 29 28 28 26 24 24 24 25 24 24 25 25 26 26 26 27 27 27 27 28
36 34 33 33 33 33 34 33 32 32 32 31 30 30 29 29 29 29 30 30 30 30 30 30 30 30 30 30 31 31 31 29 28 28 28 27 28 28 27 27 27 28 29 29 28 28 28 28 28 28 27 26 27 29 30 31 31 30 29 28 28 27 26 25 26 27 27 28 28 28 28 27 27 27
37 34 33 34 34 34 35 35 34 33 33 32 32 32 32 31 31 31 31 31 31 31 31 30 30 31 31 31 30 31 31 31 30 30 29 29 29 30 29 29 29 30 30 31 30 28 28 28 29 29 29 28 27 28 29 31 32 32 31 31 30 30 28 27 26 27 28 28 29 29 29 28 28 28
38 36 34 34 35 35 35 35 35 35 34 34 33 33 33 33 33 32 32 32 31 31 31 31 31 31 31 31 31 31 31 31 31 31 31 31 31 31 31 30 30 31 32 31 30 29 28 29 29 30 30 29 29 28 28 29 30 31 30 30 30 30 29 27 27 28 28 29 29 29 29 29 29 29
38 39 38 36 37 38 37 35 34 35 35 35 35 35 35 35 34 34 33 33 32 32 32 32 32 32 32 32 32 32 32 31 31 31 31 32 32 32 33 33 33 33 32 32 32 30 29 30 30 30 30 30 29 29 28 28 28 29 29 29 29 29 28 27 26 27 28 28 29 29 29 30 30 30
38 39 40 41 40 39 38 37 36 36 36 36 36 36 36 36 36 36 36 35 35 35 35 34 34 34 34 34 33 33 32 32 31 30 30 31 32 32 33 35 36 36 35 34 34 33 31 31 32 32 32 31 30 30 29 28 28 28 28 29 29 29 29 28 27 27 28 28 29 29 29 29 30 31
34 38 40 41 42 42 42 41 40 39 38 37 37 37 37 38 39 39 39 38 38 38 38 37 37 37 36 35 35 35 34 34 33 32 32 34 34 34 33 34 36 37 36 35 35 34 33 32 32 32 31 31 31 31 30 29 28 29 29 29 29 30 30 30 29 29 30 30 30 30 30 30 31 31
21 26 28 31 33 36 40 43 43 42 41 40 39 39 39 40 41 40 40 40 39 38 38 39 40 40 38 37 37 37 36 36 35 35 36 36 36 36 35 35 35 36 36 35 35 34 34 33 31 29 28 29 30 31 30 29 29 30 31 32 31 31 32 33 32 32 33 33 33 32 32 32 32 32
16 19 22 24 25 27 32 37 40 40 40 40 41 41 41 41 39 38 36 34 33 32 34 35 36 37 37 37 38 38 37 36 37 38 38 38 38 37 36 34 33 33 34 35 35 35 35 34 32 30 29 29 29 30 31 31 31 31 33 34 35 35 35 36 36 36 35 35 35 35 35 35 36 36
24 25 26 25 25 25 26 28 31 34 36 37 37 37 36 34 32 30 29 28 28 29 31 31 31 30 31 32 34 35 35 35 37 38 39 38 37 37 36 35 35 35 35 36 37 37 37 37 36 36 35 34 34 34 35 36 37 37 37 38 40 40 41 42 42 42 42 41 40 39 39 39 40 41
28 27 27 26 26 26 26 25 26 27 28 29 30 30 30 30 29 29 30 30 31 32 33 33 32 31 31 32 32 33 34 35 36 37 37 37 37 37 38 38 39 38 38 39 40 41 41 41 41 41 41 41 41 41 41 41 42 43 43 43 44 44 45 46 47 47 47 47 47 45 44 43 44 45
30 29 29 29 28 29 29 29 29 28 28 29 30 32 34 35 33 31 31 32 32 33 34 34 34 34 34 35 35 35 36 38 39 39 40 40 41 41 42 42 42 41 41 41 42 43 44 45 45 45 45 45 45 46 47 47 46 46 47 47 47 47 47 48 49 49 50 50 50 49 47 45 45 47
32 31 31 31 30 31 32 33 33 33 34 34 34 36 39 39 36 34 33 34 34 36 36 36 35 36 37 37 37 38 39 40 41 42 42 43 44 44 44 44 44 44 44 44 44 45 45 46 47 47 47 47 47 48 50 51 51 50 50 50 50 50 50 50 50 50 51 51 52 52 50 47 46 46
32 33 33 33 32 33 34 35 35 36 36 36 36 38 41 41 39 37 37 38 38 39 39 38 38 39 40 41 41 41 42 43 43 44 45 45 46 46 46 47 47 47 47 47 47 48 48 48 49 49 49 48 48 48 49 51 53 54 54 53 53 53 53 53 53 53 53 53 54 55 55 52 50 48
33 34 35 35 35 35 35 36 36 37 38 38 38 40 42 42 41 40 40 42 43 43 42 42 42 42 43 43 44 44 45 45 46 47 47 48 48 48 49 49 50 50 50 51 51 51 52 52 53 54 53 52 52 51 50 50 52 55 58 58 56 56 57 57 57 56 56 56 57 57 58 57 55 53
36 36 36 37 38 38 38 39 39 40 41 41 41 42 43 44 44 44 44 45 46 47 47 47 47 47 46 47 47 47 47 48 48 49 50 50 50 51 51 52 52 53 53 53 54 55 55 56 56 57 58 58 57 57 55 54 53 55 59 61 62 61 61 62 61 61 60 60 60 61 61 61 60 59
41 40 40 40 41 42 42 43 44 44 44 45 45 46 47 48 48 49 50 50 50 51 52 52 52 52 52 52 52 52 52 52 52 53 53 53 53 54 54 54 54 55 55 56 57 58 59 60 60 61 61 62 62 62 61 60 58 57 59 62 64 65 66 66 66 65 65 65 65 64 64 64 64 64
46 45 45 46 47 47 46 47 47 47 48 49 50 50 51 51 52 54 54 54 54 54 55 56 56 56 56 56 56 56 56 57 57 57 57 57 57 58 58 58 57 58 58 58 58 59 60 61 62 63 64 64 65 65 65 65 64 63 62 63 65 67 68 69 70 70 69 70 70 69 69 68 68 68
50 50 51 51 51 50 50 49 49 50 50 51 52 52 52 53 54 55 56 57 57 57 57 58 58 58 59 59 59 59 60 60 61 61 61 61 61 62 62 62 62 62 62 62 62 62 62 63 63 64 65 66 67 68 68 68 68 68 68 68 69 70 71 72 74 75 75 75 76 76 75 75 75 74
52 52 53 53 53 53 53 52 52 53 53 53 53 54 55 55 56 56 57 58 58 58 59 59 60 60 61 61 62 62 63 64 64 64 65 65 65 66 66 67 67 67 67 67 67 67 67 68 68 69 70 71 72 73 73 74 74 75 75 75 75 75 75 75 76 77 78 79 80 81 81 81 81 80
53 53 53 53 54 54 55 55 55 55 55 56 56 56 57 58 58 58 59 59 59 60 61 61 62 62 63 64 65 66 66 66 66 67 67 68 68 68 69 69 70 71 71 71 72 72 73 73 73 74 75 76 77 78 79 80 81 81 81 82 81 81 80 80 79 80 80 81 83 84 86 87 87 87
55 55 55 55 55 55 56 56 56 56 56 57 57 58 58 59 59 59 60 60 61 61 62 62 63 64 65 66 67 67 67 67 68 68 68 69 69 70 70 71 71 72 73 73 74 75 75 76 77 78 79 80 81 82 83 83 84 84 85 85 85 85 85 85 85 84 84 85 85 87 88 90 92 92
58 58 58 58 58 58 58 58 58 58 58 58 58 58 59 59 60 60 60 60 60 60 60 61 63 64 65 65 66 67 67 68 68 69 69 70 70 71 72 72 73 74 74 75 76 76 77 78 79 80 80 81 82 83 84 84 85 85 86 86 87 87 88 88 88 88 88 88 88 89 90 91 93 94
Wind_Direction
310 313 348 354 345 337 330 333 337 333 323 314 303 300 302 303 307 313 322 333 343 351 350 346 341 332 332 341 339 337 345 344 333 329 331 335 325 320 340 4 19 26 23 17 13 10 13 16 19 25 29 30 32 32 33 37 40 43 46 49 52 56 59 59 59 62 69 75 80 84 86 87 86 84
297 312 335 330 322 313 304 302 303 300 294 287 285 289 294 300 310 318 327 339 343 345 352 358 349 331 330 337 336 335 342 336 317 313 326 333 318 313 338 2 5 6 3 360 358 359 4 10 15 23 30 32 32 30 28 29 31 33 37 42 46 49 54 58 59 59 63 69 75 80 84 87 89 89
262 277 295 305 303 298 294 292 293 295 296 294 299 309 312 315 319 321 324 332 339 339 341 345 347 346 345 341 338 340 343 338 326 322 329 331 323 330 351 356 347 346 346 346 349 355 6 16 22 29 35 38 39 35 30 28 29 29 30 35 39 43 45 47 51 54 56 61 68 75 81 85 89 90
263 265 272 281 283 285 286 286 290 296 298 302 310 315 315 312 308 311 315 319 329 331 330 338 345 350 357 355 350 350 352 353 350 342 339 340 340 347 356 357 346 337 337 340 345 352 5 16 23 30 34 39 43 42 35 30 29 29 28 30 34 38 40 40 40 41 42 47 53 62 72 81 87 90
264 261 262 267 269 271 273 277 284 292 294 301 307 302 300 301 298 303 314 318 322 320 321 335 343 346 357 5 3 1 359 358 354 347 348 357 2 356 350 351 346 335 331 336 341 348 357 5 12 22 29 34 38 41 38 32 27 25 25 27 30 33 35 35 35 33 30 30 31 39 49 62 75 85
253 253 254 257 259 261 263 265 270 276 280 286 292 293 301 310 305 308 318 319 319 313 311 324 332 333 340 349 355 358 356 350 341 338 346 358 6 0 345 341 340 334 330 334 338 343 348 354 360 3 11 22 26 28 29 27 22 18 17 21 25 27 27 26 26 25 24 20 16 14 15 21 35 55
253 254 253 254 256 257 259 259 259 264 269 274 280 287 295 299 298 303 307 309 313 308 303 312 319 320 325 331 336 338 337 329 324 326 333 341 346 344 334 332 333 333 334 335 338 340 339 343 348 349 348 356 6 10 11 9 9 10 9 11 14 16 16 15 13 11 10 10 8 3 359 353 351 351
256 258 257 257 256 254 256 257 255 253 255 260 264 268 273 274 281 293 297 303 309 305 304 308 310 313 317 320 321 322 320 317 315 317 320 324 328 328 325 325 327 329 333 336 335 332 329 329 332 336 335 331 337 346 350 350 350 353 355 355 357 1 3 3 2 359 356 354 354 352 349 344 340 336
250 256 258 258 256 255 258 260 260 255 252 255 258 258 262 267 272 281 291 302 307 304 306 306 302 304 309 310 310 311 312 312 311 311 311 314 318 318 315 314 317 321 324 325 322 316 315 314 312 316 319 314 307 311 319 323 324 326 330 330 333 339 345 349 350 349 347 345 342 339 336 332 329 326
246 250 253 254 253 253 254 256 256 254 251 251 253 252 255 262 268 273 282 291 294 294 296 297 295 296 298 300 302 303 304 305 305 305 305 307 308 308 306 306 308 310 309 310 310 308 307 306 303 303 305 302 293 288 291 295 295 292 292 294 302 310 318 325 330 333 335 335 334 332 329 324 320 316
244 246 248 251 251 251 252 252 251 251 252 253 252 252 255 260 263 267 272 275 279 282 285 285 285 286 288 289 292 294 295 295 296 298 300 301 301 300 301 302 304 306 306 305 303 304 303 298 296 296 296 295 290 284 281 280 281 279 275 274 277 283 291 298 305 311 315 318 321 322 321 319 316 312
246 247 247 249 250 249 250 251 251 249 249 253 255 256 259 263 264 265 266 267 268 270 272 274 275 277 278 279 281 283 284 286 288 290 293 296 297 298 298 301 305 306 307 308 305 305 304 295 289 288 288 287 285 281 280 280 279 278 276 274 273 273 275 279 284 290 295 299 304 306 308 309 308 307
250 250 249 249 251 250 251 253 254 253 251 253 257 258 258 260 262 263 264 266 268 269 269 269 271 272 273 273 274 275 276 278 281 282 284 288 292 295 298 303 307 306 304 306 307 307 310 303 293 287 282 280 277 277 279 281 280 279 278 278 278 277 275 275 277 280 283 287 289 292 294 296 297 298
253 252 251 252 254 255 255 254 253 252 253 255 257 258 259 260 262 264 265 266 268 270 272 272 273 274 275 275 275 274 273 273 276 278 280 282 285 288 293 298 304 306 303 302 304 306 310 309 302 296 288 279 273 271 274 278 280 281 281 281 281 280 279 277 277 278 280 282 284 286 287 288 289 290
252 254 254 254 255 255 254 254 254 253 256 258 258 258 260 263 264 266 267 269 272 274 277 278 278 278 278 279 278 277 275 273 273 275 277 279 282 284 286 290 295 302 307 307 302 303 307 310 307 303 301 293 281 272 270 273 276 279 281 281 282 283 283 282 281 281 281 282 284 285 286 287 287 288
251 253 253 252 253 255 255 256 258 257 257 258 259 259 260 261 263 266 270 273 276 277 278 280 281 282 283 283 283 281 280 278 276 276 277 279 280 281 282 284 287 294 302 306 303 300 302 305 305 305 305 302 294 286 279 275 274 275 276 278 280 282 283 285 286 286 285 284 283 284 285 286 286 286
253 253 252 251 251 253 256 257 258 257 255 255 256 258 258 258 259 263 267 270 272 275 279 282 284 285 287 288 288 287 287 286 284 283 282 283 283 283 285 285 285 289 295 298 297 293 293 296 299 300 301 299 295 292 288 282 278 275 275 276 277 278 279 280 283 285 286 285 284 283 283 283 284 285
250 252 255 256 252 251 252 253 255 257 256 255 255 255 256 257 257 258 261 264 268 271 274 277 279 282 285 286 286 287 288 288 288 287 286 285 287 288 288 286 285 286 289 291 290 284 284 288 291 292 293 293 292 291 289 286 282 278 276 276 276 276 276 276 278 280 282 284 284 284 284 283 282 283
247 247 250 253 254 254 254 252 253 258 259 258 257 256 255 256 257 256 257 262 265 267 269 271 274 277 280 281 281 283 286 287 288 290 289 288 288 288 288 287 286 286 287 288 287 280 279 283 286 287 289 290 291 290 289 287 286 283 281 278 275 274 274 274 274 275 277 280 282 284 285 285 285 285
250 246 243 245 251 255 255 252 252 256 258 256 255 255 255 257 259 258 257 259 261 263 266 268 271 274 276 278 280 281 282 284 287 290 291 291 290 289 287 286 287 287 287 287 287 283 282 283 285 286 287 288 289 290 290 288 286 286 284 282 279 277 275 274 273 273 275 277 280 282 284 286 287 287
250 249 244 242 243 246 249 250 251 254 254 253 252 253 254 256 258 259 258 258 259 261 264 266 269 272 274 276 278 279 280 281 282 285 287 289 290 290 288 286 286 286 286 287 288 287 285 286 287 288 289 290 289 289 290 289 286 285 285 286 286 283 280 279 277 275 274 276 278 280 282 284 285 285
247 247 245 243 241 241 243 246 248 251 253 252 252 252 253 255 257 259 260 261 262 263 265 267 270 272 274 276 277 278 279 280 281 281 282 283 285 286 286 285 285 286 286 288 288 288 288 288 288 289 291 292 291 290 290 289 286 285 286 288 288 287 286 285 283 281 280 279 278 277 277 278 279 281
247 246 246 247 246 244 245 247 248 251 253 254 255 255 256 257 259 259 260 262 263 264 266 268 271 273 276 278 279 280 281 282 283 283 282 282 282 283 283 283 283 283 284 286 287 287 288 289 289 289 289 289 289 291 291 291 289 287 287 287 287 287 286 286 286 286 285 284 281 277 275 275 276 277
248 248 248 250 251 250 249 250 251 252 254 256 258 258 258 259 259 259 260 262 264 265 266 269 271 273 275 276 278 279 281 283 284 284 284 284 284 284 283 283 282 281 281 282 283 285 286 288 289 290 289 287 287 288 289 290 289 288 288 288 287 286 286 286 286 286 285 285 283 281 280 280 278 277
247 248 248 250 252 253 252 252 253 254 255 258 259 260 261 262 261 260 261 263 265 266 268 269 270 271 272 273 274 276 278 279 281 282 284 285 285 285 285 285 284 282 281 281 281 282 283 285 287 288 289 289 288 286 286 286 286 287 288 288 288 287 287 287 287 286 285 285 285 285 284 283 281 278
245 245 247 250 252 254 254 253 254 255 256 259 261 262 262 263 263 264 265 266 267 267 267 268 268 269 269 270 271 273 275 277 280 281 283 283 284 284 285 284 284 283 282 282 282 283 283 284 285 286 288 289 289 287 285 285 285 286 287 286 287 287 287 286 286 286 285 285 285 285 285 284 283 282
249 246 245 246 249 251 253 254 254 255 257 259 260 261 263 263 264 265 266 267 267 267 267 268 268 269 269 270 270 271 274 277 280 282 283 283 284 284 285 284 283 281 281 282 282 283 284 285 286 286 286 286 286 285 284 284 284 285 286 286 286 287 288 287 286 285 284 285 284 284 283 283 284 284
254 249 245 244 246 248 251 253 254 254 256 258 260 262 263 264 265 268 269 269 269 270 270 270 270 270 271 272 273 274 276 279 281 282 284 286 288 288 287 285 282 280 279 280 281 281 282 282 284 284 284 283 282 281 281 281 282 283 283 284 286 288 289 290 289 288 287 286 286 285 284 283 283 283
256 251 248 249 251 252 253 254 254 254 256 259 261 263 265 266 268 271 272 271 271 272 272 273 273 272 272 273 275 277 279 279 281 282 284 288 290 292 292 289 285 281 279 278 279 280 280 280 281 281 281 281 280 279 278 278 279 281 282 282 284 286 288 290 290 290 290 289 289 288 287 286 285 284
260 253 255 259 262 263 260 258 257 256 256 259 262 264 267 270 271 272 272 273 274 274 274 274 273 273 273 273 275 277 278 279 280 281 283 286 289 291 292 292 290 286 283 281 281 281 281 281 279 279 278 278 279 278 277 276 276 279 281 282 282 283 285 286 286 287 288 289 290 290 291 291 290 288
275 270 272 275 277 276 269 263 259 257 257 259 262 265 267 268 269 270 271 273 275 276 275 275 275 275 275 275 274 275 277 278 279 279 281 283 285 286 286 286 287 286 286 285 284 284 284 283 282 281 280 279 279 279 279 278 278 278 280 282 283 283 284 285 285 285 285 285 286 288 290 290 290 289
278 277 277 277 276 276 273 266 260 258 258 259 260 262 264 265 266 268 270 274 277 279 279 280 281 283 281 277 276 276 277 277 277 278 279 280 281 280 280 280 281 282 282 283 283 283 283 283 284 284 283 282 281 280 280 280 280 280 281 282 283 284 284 285 285 285 285 285 284 285 286 287 288 287
274 273 273 272 270 268 268 264 259 257 259 260 262 265 267 269 271 273 275 277 279 279 280 281 282 282 280 279 278 278 278 277 277 277 278 278 278 277 277 277 278 278 278 279 280 281 282 282 283 283 283 283 283 282 281 280 281 281 281 281 281 282 282 283 284 284 284 284 284 284 284 285 286 286
270 269 268 267 265 263 263 262 261 262 264 266 270 273 274 274 276 278 278 278 277 276 277 278 279 279 279 279 279 279 279 278 278 278 278 278 278 278 278 278 278 278 278 278 278 279 280 281 282 283 284 284 284 285 285 284 283 283 283 283 282 282 282 282 282 283 283 284 283 283 282 282 283 283
268 267 266 265 264 264 264 264 265 266 268 269 272 274 274 274 276 278 278 277 276 276 276 277 278 278 278 278 278 278 278 278 278 279 279 279 279 280 280 280 280 280 280 280 279 279 279 280 281 282 282 284 285 286 287 287 286 286 286 285 285 284 283 283 283 283 284 284 284 283 282 281 281 281
267 267 266 265 264 263 263 264 265 266 267 268 270 271 271 272 274 277 278 277 276 276 277 278 278 278 278 279 280 280 279 279 280 280 280 280 281 281 282 282 282 282 282 282 282 282 282 282 281 281 281 281 282 283 284 285 286 287 286 286 286 286 285 285 284 284 283 283 283 283 283 282 281 281
266 266 266 266 265 264 264 264 265 266 267 267 269 271 272 272 273 276 278 278 278 278 278 277 277 277 277 278 278 279 279 279 280 280 280 280 280 281 282 282 283 283 283 283 284 284 284 284 283 283 282 282 281 281 281 282 284 286 286 285 285 285 284 284 283 283 283 282 282 282 282 282 281 281
266 266 266 266 267 267 266 266 265 266 267 268 270 272 273 273 273 275 277 278 278 279 279 279 279 279 279 278 278 278 278 278 278 278 278 278 278 279 279 279 280 280 281 282 282 282 282 282 282 282 282 282 281 281 280 280 281 284 285 285 285 284 284 283 283 282 282 281 281 281 281 281 281 280
267 267 266 266 265 265 265 266 266 267 268 269 270 271 273 274 274 275 276 276 277 278 279 280 281 282 282 282 282 282 281 281 281 281 281 281 280 280 280 280 280 280 280 280 281 281 281 281 282 282 281 281 281 281 280 280 279 280 282 283 283 283 283 283 282 282 282 281 280 280 279 280 280 280
268 268 267 266 266 266 266 267 268 269 269 270 270 271 272 273 274 275 275 275 276 277 278 279 280 281 282 282 283 283 283 284 283 284 284 285 284 284 284 284 283 283 282 282 281 281 281 281 281 281 282 282 282 281 281 281 281 280 280 281 282 282 282 282 282 282 282 281 281 280 279 279 278 278
267 268 269 269 270 270 270 269 269 269 270 270 271 272 273 273 273 274 274 275 275 276 277 278 278 279 280 281 281 282 282 282 283 284 285 285 285 286 286 286 286 286 285 285 284 284 284 283 283 283 283 282 282 282 282 282 282 282 282 282 282 282 282 283 283 283 283 282 282 281 281 280 279 278
268 268 269 271 271 272 272 271 271 271 271 271 272 272 273 273 273 274 274 275 276 277 277 278 278 279 280 281 281 281 281 282 283 284 284 284 285 286 286 286 286 287 287 287 287 287 287 286 286 286 286 285 285 285 284 284 284 285 285 285 285 285 285 284 284 285 285 285 284 284 283 282 281 280
269 269 269 269 270 271 272 272 272 272 272 272 272 272 273 273 273 273 274 275 276 276 277 278 279 279 280 280 280 280 281 282 283 283 284 284 284 285 285 285 285 286 286 286 286 286 286 286 286 286 286 286 286 286 286 285 285 285 285 285 285 286 286 286 286 286 287 287 287 287 287 286 285 284
268 269 269 269 270 270 270 271 272 273 273 273 273 273 273 273 273 273 273 273 274 275 276 277 278 278 278 279 279 280 281 281 282 282 283 283 283 283 284 284 284 284 284 284 284 284 285 285 285 285 285 285 285 285 285 284 284 284 284 284 284 284 284 284 284 285 286 286 287 287 288 287 287 287
268 268 269 269 269 269 269 270 271 272 272 272 272 273 273 273 274 274 274 275 275 275 275 275 275 276 277 277 278 279 280 280 281 281 281 282 282 282 283 283 283 283 283 283 283 283 283 283 284 284 284 284 284 284 284 284 284 284 283 283 283 283 282 282 281 281 282 282 284 284 285 285 285 285
Height
5963 5964 5964 5964 5964 5964 5964 5965 5965 5965 5965 5965 5965 5965 5965 5965 5964 5964 5964 5965 5965 5965 5965 5964 5964 5964 5963 5963 5962 5961 5960 5960 5960 5959 5959 5958 5957 5957 5957 5956 5955 5955 5954 5954 5953 5953 5952 5952 5951 5951 5950 5950 5949 5949 5948 5948 5947 5947 5946 5945 5944 5944 5944 5943 5943 5943 5943 5942 5942 5942 5941 5941 5941 5941
5963 5963 5964 5964 5964 5964 5964 5964 5965 5965 5965 5965 5965 5965 5965 5965 5964 5964 5963 5964 5964 5964 5964 5964 5964 5964 5964 5963 5962 5961 5960 5960 5960 5960 5959 5958 5958 5958 5957 5957 5956 5955 5955 5954 5954 5953 5953 5952 5952 5951 5951 5950 5950 5949 5949 5949 5948 5948 5947 5947 5946 5945 5944 5944 5944 5944 5943 5943 5943 5943 5942 5942 5942 5942
5963 5963 5963 5963 5963 5963 5963 5964 5964 5964 5964 5965 5965 5965 5965 5965 5965 5964 5963 5963 5963 5963 5963 5963 5964 5964 5963 5963 5962 5961 5961 5961 5960 5960 5959 5959 5959 5958 5957 5957 5956 5956 5955 5955 5954 5954 5953 5952 5952 5952 5951 5951 5951 5950 5950 5949 5949 5949 5948 5948 5947 5946 5946 5945 5944 5944 5944 5944 5944 5943 5943 5943 5943 5942
5963 5963 5963 5963 5963 5963 5963 5963 5964 5964 5964 5964 5964 5964 5965 5965 5964 5963 5963 5963 5963 5962 5962 5962 5962 5962 5962 5962 5962 5961 5961 5960 5960 5960 5959 5959 5959 5958 5957 5957 5957 5956 5956 5955 5955 5954 5953 5953 5952 5952 5952 5952 5951 5951 5951 5950 5950 5949 5949 5948 5948 5947 5947 5946 5945 5945 5944 5944 5944 5944 5944 5943 5943 5943
5962 5962 5962 5963 5963 5963 5963 5963 5963 5963 5963 5963 5964 5964 5963 5963 5963 5963 5963 5963 5963 5962 5961 5961 5961 5961 5962 5962 5961 5961 5960 5959 5959 5959 5959 5959 5958 5958 5957 5957 5957 5957 5956 5956 5955 5954 5954 5953 5953 5952 5952 5952 5952 5951 5951 5951 5950 5950 5950 5949 5949 5948 5947 5947 5946 5946 5945 5945 5945 5944 5944 5944 5944 5944
5962 5962 5962 5962 5962 5963 5963 5963 5963 5963 5963 5963 5963 5963 5963 5963 5963 5963 5963 5962 5962 5962 5961 5961 5961 5961 5961 5961 5961 5960 5959 5959 5959 5958 5958 5958 5958 5957 5957 5957 5957 5957 5956 5956 5955 5954 5954 5953 5953 5953 5952 5952 5952 5952 5951 5951 5951 5951 5950 5950 5949 5949 5948 5948 5947 5947 5946 5946 5945 5945 5945 5944 5944 5944
5961 5961 5961 5962 5962 5962 5962 5962 5962 5963 5963 5963 5963 5963 5963 5963 5963 5963 5962 5962 5962 5962 5962 5962 5961 5961 5961 5960 5959 5959 5959 5958 5958 5958 5958 5957 5957 5957 5957 5957 5957 5957 5956 5955 5954 5954 5953 5953 5953 5952 5952 5952 5951 5951 5951 5951 5951 5951 5950 5950 5950 5949 5949 5948 5948 5947 5947 5946 5946 5945 5945 5945 5944 5944
5961 5961 5961 5961 5962 5962 5961 5961 5962 5962 5962 5962 5962 5962 5962 5963 5963 5963 5962 5962 5962 5962 5961 5961 5961 5960 5960 5959 5958 5958 5958 5958 5958 5957 5957 5957 5957 5957 5957 5957 5957 5956 5956 5955 5954 5954 5953 5952 5952 5952 5951 5951 5951 5951 5951 5951 5951 5950 5950 5950 5950 5949 5949 5948 5948 5947 5947 5947 5946 5946 5945 5945 5945 5944
5960 5960 5961 5961 5961 5961 5961 5961 5961 5961 5961 5961 5962 5962 5961 5961 5961 5961 5962 5961 5961 5961 5960 5960 5960 5959 5959 5958 5958 5957 5957 5957 5957 5957 5957 5956 5956 5957 5956 5956 5956 5955 5955 5954 5954 5953 5952 5952 5951 5951 5950 5950 5950 5950 5950 5950 5950 5950 5950 5949 5949 5949 5949 5948 5948 5947 5947 5946 5946 5946 5945 5945 5945 5944
5958 5959 5960 5960 5960 5960 5960 5960 5960 5960 5960 5960 5960 5960 5960 5960 5960 5960 5960 5960 5960 5960 5959 5959 5959 5958 5958 5958 5958 5957 5957 5957 5956 5956 5956 5956 5955 5955 5955 5955 5954 5954 5954 5953 5953 5952 5952 5951 5951 5950 5950 5949 5949 5949 5949 5949 5949 5949 5949 5949 5949 5948 5948 5948 5947 5947 5947 5946 5946 5945 5945 5944 5944 5944
5957 5958 5958 5959 5959 5959 5959 5959 5959 5959 5959 5959 5959 5959 5958 5959 5959 5959 5959 5959 5959 5959 5959 5958 5958 5958 5958 5958 5957 5957 5957 5956 5956 5955 5955 5955 5954 5953 5953 5953 5953 5953 5953 5952 5952 5952 5951 5951 5950 5950 5949 5949 5949 5949 5948 5948 5948 5948 5948 5948 5948 5947 5947 5947 5947 5946 5946 5945 5945 5945 5944 5944 5943 5943
5956 5956 5957 5957 5957 5958 5958 5958 5958 5958 5958 5958 5958 5958 5958 5958 5958 5958 5957 5957 5957 5957 5957 5957 5957 5957 5957 5957 5957 5956 5956 5955 5955 5955 5954 5953 5953 5952 5952 5951 5952 5952 5952 5951 5951 5951 5951 5950 5950 5949 5949 5948 5948 5948 5947 5947 5947 5947 5947 5946 5946 5946 5946 5946 5945 5945 5945 5944 5944 5944 5943 5943 5942 5942
5955 5955 5955 5955 5955 5956 5956 5957 5957 5957 5957 5957 5957 5957 5957 5957 5956 5956 5956 5956 5956 5956 5956 5956 5956 5956 5956 5956 5955 5955 5955 5955 5954 5954 5954 5953 5953 5952 5951 5950 5951 5951 5951 5950 5949 5949 5950 5950 5949 5948 5948 5948 5948 5947 5946 5946 5946 5946 5946 5945 5945 5945 5944 5944 5944 5943 5943 5943 5943 5942 5942 5941 5941 5940
5953 5953 5953 5954 5954 5954 5955 5956 5956 5956 5956 5956 5956 5956 5956 5955 5955 5955 5955 5954 5954 5955 5955 5955 5955 5954 5954 5954 5954 5954 5954 5954 5953 5953 5953 5953 5952 5952 5951 5950 5949 5950 5950 5950 5949 5947 5948 5948 5948 5947 5947 5947 5946 5946 5945 5944 5944 5944 5944 5944 5943 5943 5943 5943 5942 5942 5942 5941 5941 5941 5940 5940 5939 5939
5950 5951 5951 5951 5952 5952 5953 5953 5953 5954 5954 5955 5955 5955 5955 5954 5954 5953 5953 5953 5954 5954 5954 5953 5953 5953 5953 5953 5953 5953 5953 5953 5952 5952 5952 5952 5951 5951 5951 5950 5948 5947 5948 5950 5949 5946 5946 5946 5946 5945 5946 5946 5945 5945 5944 5943 5943 5942 5942 5942 5942 5941 5941 5941 5940 5940 5940 5940 5939 5939 5939 5938 5938 5938
5947 5948 5948 5948 5949 5950 5950 5951 5951 5951 5952 5952 5953 5953 5953 5952 5952 5952 5952 5952 5952 5952 5952 5952 5951 5952 5952 5951 5951 5951 5951 5951 5951 5951 5950 5950 5950 5950 5950 5949 5948 5946 5946 5948 5948 5946 5944 5944 5944 5944 5944 5944 5943 5943 5943 5942 5942 5941 5940 5940 5939 5939 5939 5939 5938 5938 5938 5938 5938 5937 5937 5937 5936 5936
5944 5945 5945 5946 5947 5948 5948 5948 5949 5948 5949 5949 5950 5950 5950 5950 5950 5950 5950 5950 5950 5950 5950 5950 5950 5950 5950 5949 5949 5949 5949 5949 5949 5949 5949 5949 5949 5948 5948 5948 5947 5945 5944 5945 5946 5945 5943 5942 5942 5942 5941 5941 5941 5940 5940 5940 5940 5939 5938 5938 5937 5937 5937 5937 5936 5935 5935 5935 5935 5935 5935 5935 5934 5934
5941 5942 5943 5944 5945 5945 5945 5945 5946 5946 5946 5946 5947 5947 5947 5947 5947 5948 5948 5948 5948 5948 5948 5948 5947 5947 5947 5947 5947 5947 5947 5947 5947 5948 5948 5947 5947 5947 5946 5945 5944 5943 5942 5943 5944 5943 5941 5940 5940 5940 5939 5939 5938 5938 5938 5938 5938 5937 5937 5936 5935 5935 5934 5934 5933 5933 5932 5932 5932 5932 5932 5932 5932 5932
5940 5940 5941 5940 5941 5942 5942 5943 5943 5943 5944 5944 5944 5944 5944 5944 5944 5945 5945 5945 5945 5945 5945 5945 5944 5944 5944 5944 5944 5944 5944 5944 5945 5945 5945 5945 5945 5945 5944 5943 5942 5941 5940 5940 5941 5940 5939 5938 5938 5938 5937 5937 5936 5935 5935 5935 5935 5935 5934 5933 5933 5932 5931 5931 5930 5930 5929 5929 5928 5928 5929 5929 5929 5929
5937 5937 5937 5937 5938 5939 5939 5940 5940 5940 5941 5941 5942 5941 5941 5941 5941 5942 5943 5942 5942 5942 5942 5942 5942 5941 5941 5941 5941 5941 5941 5942 5942 5942 5942 5942 5942 5942 5942 5940 5939 5938 5937 5938 5938 5938 5937 5936 5936 5936 5935 5935 5934 5933 5933 5933 5932 5931 5931 5930 5930 5929 5929 5928 5928 5927 5927 5926 5926 5926 5926 5926 5926 5926
5931 5932 5933 5934 5934 5934 5934 5934 5935 5936 5937 5938 5939 5939 5938 5938 5938 5939 5939 5939 5939 5940 5940 5939 5939 5939 5938 5938 5938 5938 5938 5939 5939 5939 5939 5938 5939 5939 5939 5938 5937 5935 5934 5935 5935 5935 5934 5933 5934 5934 5933 5932 5931 5930 5929 5929 5929 5928 5928 5927 5927 5926 5926 5925 5925 5925 5924 5924 5924 5923 5922 5922 5922 5921
5927 5928 5929 5930 5930 5930 5929 5929 5930 5932 5934 5935 5935 5935 5935 5935 5935 5936 5936 5935 5936 5937 5936 5936 5936 5936 5936 5936 5935 5935 5935 5935 5936 5936 5936 5935 5935 5935 5935 5935 5934 5933 5931 5931 5932 5932 5931 5930 5931 5931 5931 5929 5927 5926 5926 5925 5925 5925 5925 5924 5923 5923 5923 5922 5922 5922 5921 5921 5920 5919 5918 5918 5917 5917
5923 5924 5924 5925 5926 5927 5927 5927 5928 5929 5930 5930 5931 5932 5933 5933 5933 5933 5933 5933 5933 5933 5933 5933 5933 5933 5932 5932 5931 5931 5931 5931 5932 5932 5932 5932 5932 5932 5932 5932 5931 5930 5928 5928 5929 5929 5928 5927 5927 5927 5928 5927 5924 5922 5922 5922 5921 5921 5921 5921 5920 5919 5919 5919 5919 5918 5918 5917 5916 5914 5914 5914 5914 5913
5918 5920 5921 5921 5922 5923 5924 5924 5924 5925 5925 5926 5927 5928 5929 5929 5929 5930 5930 5930 5930 5930 5930 5930 5929 5929 5929 5928 5928 5927 5927 5927 5927 5927 5927 5928 5928 5928 5928 5928 5928 5927 5925 5925 5925 5925 5925 5924 5923 5923 5923 5924 5923 5920 5919 5918 5917 5917 5917 5917 5916 5916 5916 5916 5915 5914 5913 5912 5911 5910 5910 5910 5910 5910
5913 5915 5916 5917 5918 5919 5919 5920 5921 5921 5921 5922 5923 5923 5924 5925 5925 5925 5926 5926 5926 5926 5926 5926 5926 5926 5925 5925 5924 5924 5923 5923 5924 5924 5923 5924 5924 5923 5924 5924 5923 5922 5921 5921 5921 5922 5921 5921 5920 5919 5919 5919 5919 5918 5917 5915 5913 5913 5913 5913 5912 5912 5912 5912 5911 5910 5909 5908 5907 5906 5906 5905 5905 5905
5907 5909 5911 5912 5912 5913 5915 5916 5917 5918 5918 5918 5919 5919 5919 5920 5920 5921 5921 5922 5922 5923 5922 5922 5922 5922 5921 5921 5921 5920 5920 5920 5920 5920 5920 5920 5919 5919 5919 5919 5919 5918 5917 5916 5917 5917 5917 5917 5916 5916 5915 5915 5915 5914 5914 5912 5910 5910 5909 5909 5908 5908 5908 5908 5907 5906 5904 5904 5903 5902 5901 5900 5900 5900
5902 5903 5904 5906 5907 5908 5910 5912 5913 5913 5913 5914 5914 5914 5915 5915 5916 5916 5917 5917 5918 5918 5918 5918 5918 5918 5918 5917 5917 5917 5917 5917 5917 5916 5916 5915 5915 5915 5915 5914 5914 5914 5913 5912 5912 5912 5913 5912 5911 5911 5911 5911 5911 5910 5910 5909 5907 5906 5906 5905 5904 5904 5904 5903 5903 5902 5901 5900 5899 5898 5897 5896 5895 5895
5897 5898 5898 5900 5902 5904 5905 5907 5908 5908 5908 5909 5909 5910 5910 5911 5911 5911 5912 5913 5913 5913 5913 5913 5913 5913 5913 5913 5913 5913 5913 5913 5912 5912 5912 5911 5910 5910 5910 5909 5909 5908 5908 5908 5907 5907 5908 5907 5907 5906 5906 5906 5906 5906 5906 5906 5905 5903 5902 5901 5901 5900 5899 5899 5899 5898 5897 5896 5895 5894 5893 5893 5892 5891
5892 5893 5894 5896 5898 5900 5901 5902 5903 5903 5903 5904 5904 5905 5905 5906 5906 5907 5907 5907 5908 5908 5908 5908 5908 5908 5908 5909 5909 5909 5908 5908 5908 5908 5907 5906 5905 5906 5905 5904 5903 5903 5903 5902 5901 5901 5902 5902 5901 5901 5901 5901 5901 5901 5902 5902 5901 5900 5898 5898 5897 5896 5895 5894 5894 5893 5892 5892 5891 5890 5890 5889 5888 5887
5888 5890 5892 5894 5895 5896 5896 5897 5897 5898 5899 5899 5899 5900 5900 5901 5901 5901 5902 5902 5903 5902 5902 5902 5901 5901 5903 5904 5903 5903 5903 5903 5902 5902 5902 5901 5901 5900 5900 5900 5898 5897 5897 5897 5896 5895 5896 5896 5896 5896 5896 5896 5895 5895 5896 5897 5897 5896 5894 5893 5893 5893 5891 5890 5889 5889 5888 5887 5886 5886 5885 5884 5883 5882
5886 5888 5890 5891 5892 5892 5891 5891 5891 5892 5893 5894 5894 5895 5895 5895 5896 5896 5897 5897 5897 5897 5896 5895 5895 5896 5897 5897 5897 5897 5897 5897 5897 5897 5897 5897 5896 5896 5895 5895 5894 5893 5892 5891 5890 5890 5890 5890 5890 5890 5890 5890 5890 5890 5890 5891 5891 5891 5890 5888 5888 5887 5886 5885 5884 5884 5883 5882 5882 5881 5880 5879 5878 5877
5883 5884 5885 5886 5887 5887 5887 5887 5887 5888 5889 5889 5890 5890 5890 5891 5892 5892 5893 5893 5893 5891 5890 5890 5890 5891 5891 5891 5891 5891 5892 5892 5892 5891 5891 5891 5891 5891 5890 5890 5890 5889 5888 5887 5886 5885 5884 5884 5884 5884 5884 5884 5884 5884 5884 5884 5884 5884 5884 5883 5881 5881 5880 5879 5878 5878 5877 5877 5877 5877 5876 5875 5873 5871
5880 5880 5881 5882 5883 5883 5883 5883 5883 5884 5885 5885 5885 5886 5886 5887 5888 5888 5889 5889 5888 5887 5886 5886 5886 5886 5886 5885 5885 5886 5886 5886 5885 5885 5885 5886 5886 5885 5885 5885 5885 5884 5884 5883 5881 5880 5879 5878 5878 5878 5878 5878 5878 5877 5877 5877 5878 5877 5876 5876 5875 5874 5873 5872 5871 5871 5870 5869 5869 5870 5871 5870 5868 5865
5875 5876 5877 5878 5878 5879 5879 5879 5880 5881 5881 5881 5881 5880 5880 5881 5882 5883 5883 5884 5883 5882 5882 5882 5882 5881 5881 5880 5881 5881 5880 5880 5879 5879 5879 5879 5879 5879 5879 5879 5879 5878 5878 5877 5876 5875 5874 5873 5872 5872 5872 5871 5871 5870 5869 5869 5870 5870 5868 5867 5867 5867 5866 5865 5864 5863 5862 5861 5861 5862 5864 5864 5863 5859
5871 5871 5872 5872 5873 5874 5874 5874 5875 5876 5876 5876 5877 5875 5874 5875 5877 5877 5878 5878 5877 5877 5877 5877 5876 5876 5875 5875 5875 5875 5875 5874 5874 5873 5873 5872 5872 5872 5872 5872 5872 5871 5871 5870 5869 5868 5868 5867 5866 5866 5866 5866 5866 5865 5862 5860 5860 5860 5860 5859 5859 5858 5858 5857 5856 5855 5855 5853 5851 5851 5853 5856 5856 5854
5866 5866 5867 5867 5869 5869 5869 5870 5870 5870 5870 5871 5871 5869 5868 5870 5872 5872 5872 5871 5871 5871 5871 5871 5871 5870 5869 5869 5869 5869 5869 5868 5868 5867 5867 5866 5865 5865 5865 5865 5864 5864 5863 5862 5862 5861 5860 5859 5858 5858 5859 5860 5860 5860 5858 5855 5852 5850 5850 5850 5850 5849 5848 5848 5848 5847 5846 5845 5843 5842 5842 5844 5847 5847
5861 5861 5862 5863 5863 5864 5865 5865 5865 5864 5864 5865 5865 5864 5863 5864 5866 5866 5866 5865 5864 5864 5865 5865 5865 5864 5864 5864 5863 5863 5862 5862 5861 5861 5860 5859 5859 5859 5858 5858 5857 5856 5855 5855 5854 5853 5852 5851 5850 5849 5850 5851 5852 5853 5853 5852 5849 5844 5840 5840 5842 5842 5840 5839 5839 5839 5838 5837 5835 5833 5832 5833 5836 5838
5855 5856 5857 5858 5858 5858 5859 5859 5859 5859 5859 5859 5859 5859 5857 5858 5859 5860 5859 5859 5858 5857 5857 5857 5857 5857 5857 5857 5857 5856 5856 5855 5854 5854 5853 5853 5852 5852 5851 5851 5850 5849 5848 5848 5846 5845 5844 5843 5842 5841 5840 5840 5841 5842 5843 5845 5845 5841 5834 5830 5831 5831 5831 5830 5829 5830 5829 5828 5827 5825 5824 5823 5823 5825
5850 5851 5851 5851 5851 5852 5853 5853 5853 5853 5853 5853 5853 5853 5852 5852 5852 5852 5851 5852 5852 5851 5850 5849 5849 5849 5849 5849 5848 5848 5848 5847 5846 5846 5845 5845 5844 5844 5843 5843 5843 5842 5841 5840 5839 5837 5836 5834 5833 5833 5832 5831 5830 5830 5831 5833 5835 5836 5832 5827 5823 5822 5821 5820 5819 5819 5819 5818 5816 5816 5816 5814 5814 5813
5843 5843 5843 5843 5844 5845 5846 5847 5847 5847 5847 5847 5846 5846 5847 5846 5845 5844 5844 5844 5845 5845 5844 5843 5843 5842 5841 5840 5840 5840 5839 5838 5837 5837 5837 5836 5835 5835 5834 5834 5834 5833 5833 5832 5831 5830 5828 5826 5825 5824 5822 5821 5821 5820 5819 5820 5821 5823 5823 5821 5818 5814 5812 5810 5808 5808 5807 5806 5804 5804 5804 5804 5804 5804
5835 5835 5835 5835 5836 5837 5839 5839 5839 5839 5839 5839 5839 5839 5839 5839 5838 5837 5837 5836 5837 5837 5837 5836 5836 5835 5834 5833 5832 5831 5830 5829 5829 5829 5828 5828 5827 5826 5825 5824 5824 5823 5823 5823 5822 5821 5819 5818 5816 5815 5813 5812 5811 5810 5810 5810 5809 5810 5810 5810 5809 5807 5804 5801 5798 5796 5795 5794 5791 5790 5791 5790 5789 5791
5828 5828 5828 5828 5828 5829 5829 5830 5831 5831 5832 5832 5831 5831 5831 5830 5830 5830 5829 5829 5829 5829 5829 5828 5828 5827 5825 5825 5824 5823 5822 5821 5821 5820 5819 5819 5818 5817 5816 5815 5814 5813 5812 5812 5811 5810 5808 5807 5806 5805 5803 5801 5800 5799 5799 5798 5797 5797 5797 5797 5797 5796 5794 5792 5789 5785 5783 5780 5777 5775 5775 5774 5774 5775
5820 5820 5821 5821 5821 5821 5820 5821 5822 5822 5823 5823 5823 5822 5822 5822 5822 5822 5822 5822 5822 5821 5821 5820 5819 5817 5816 5816 5815 5814 5814 5813 5813 5812 5811 5810 5809 5808 5807 5806 5805 5803 5803 5802 5800 5799 5798 5797 5795 5794 5792 5791 5789 5787 5786 5785 5785 5784 5783 5782 5782 5781 5780 5779 5778 5776 5772 5769 5765 5761 5759 5756 5755 5757
5811 5811 5812 5814 5814 5813 5812 5813 5814 5814 5814 5814 5814 5813 5813 5813 5813 5813 5813 5813 5814 5814 5813 5811 5809 5807 5807 5807 5806 5805 5805 5804 5804 5803 5802 5800 5799 5798 5798 5797 5795 5794 5793 5792 5791 5790 5788 5786 5785 5783 5781 5780 5778 5776 5775 5774 5773 5772 5771 5769 5769 5768 5766 5766 5765 5765 5763 5759 5755 5750 5747 5743 5739 5739
5803 5804 5804 5805 5804 5804 5804 5805 5806 5807 5806 5805 5804 5804 5803 5804 5804 5804 5804 5805 5806 5806 5804 5801 5799 5800 5800 5799 5797 5796 5796 5795 5794 5793 5792 5791 5790 5789 5788 5787 5785 5784 5783 5781 5780 5780 5778 5776 5775 5773 5771 5769 5767 5765 5763 5762 5761 5760 5759 5757 5756 5755 5753 5752 5752 5752 5752 5750 5746 5740 5737 5734 5730 5727